This is the latest recevied weather packets stored in our database for station/object JA1KWV-11. If no packets are shown the sender has not sent any weather packets the latest 10 day(s).
| Time | Temp. | Humidity | Pressure | Rain* | Wind** | Luminosity | Snow |
|---|---|---|---|---|---|---|---|
| 1777566859 | 21.11° C | 72% | 1016.2 hPa | 0 mm | - | - | - |
| 1777565418 | 21.11° C | 73% | 1016.4 hPa | 0 mm | - | - | - |
| 1777564938 | 21.11° C | 72% | 1016.7 hPa | 0 mm | - | - | - |
| 1777563017 | 21.11° C | 72% | 1017.2 hPa | 0 mm | - | - | - |
| 1777561576 | 21.11° C | 73% | 1017.9 hPa | 0 mm | - | - | - |
| 1777557254 | 21.11° C | 71% | 1019.6 hPa | 0 mm | - | - | - |
| 1777556774 | 21.11° C | 71% | 1019.3 hPa | 0 mm | - | - | - |
| 1777554853 | 21.11° C | 71% | 1019.7 hPa | 0 mm | - | - | - |
| 1777554373 | 21.11° C | 68% | 1019.9 hPa | 0 mm | - | - | - |
| 1777552452 | 21.11° C | 70% | 1020.2 hPa | 0 mm | - | - | - |
| 1777551972 | 21.11° C | 71% | 1020 hPa | 0 mm | - | - | - |
| 1777550051 | 21.11° C | 70% | 1020.5 hPa | 0 mm | - | - | - |
| 1777549571 | 21.11° C | 69% | 1020.6 hPa | 0 mm | - | - | - |
| 1777548610 | 21.11° C | 69% | 1020.4 hPa | 0 mm | - | - | - |
| 1777548130 | 21.11° C | 68% | 1020.7 hPa | 0 mm | - | - | - |
| 1777547650 | 21.11° C | 68% | 1020.8 hPa | 0 mm | - | - | - |
| 1777545729 | 21.11° C | 68% | 1020.3 hPa | 0 mm | - | - | - |
| 1777545249 | 21.11° C | 68% | 1020.5 hPa | 0 mm | - | - | - |
| 1777544768 | 21.11° C | 69% | 1020.5 hPa | 0 mm | - | - | - |
| 1777544288 | 21.11° C | 68% | 1020.3 hPa | 0 mm | - | - | - |
| 1777543808 | 21.67° C | 68% | 1020.2 hPa | 0 mm | - | - | - |
| 1777543328 | 21.67° C | 67% | 1020.5 hPa | 0 mm | - | - | - |
| 1777542367 | 21.11° C | 68% | 1020.4 hPa | 0 mm | - | - | - |
| 1777541887 | 21.11° C | 67% | 1020.3 hPa | 0 mm | - | - | - |
| 1777541407 | 21.11° C | 68% | 1020 hPa | 0 mm | - | - | - |
* Rain since midnight (hover to see other rain measurements)
** Current wind speed in m/s (hover to see current wind gust speed)